CW1020 Weather Reports


time (UTC)temp
C
wind
direction
speed
KPH
gust
KPH
rain 1hr
cm
rain 24hr
cm
rain mn
cm
humidity
%
barometer
mb
20260508021504 20 270 6.4 11.3 0.00 0.00 0.00 55 1019.3
20260508021003 20 279 6.4 11.3 0.00 0.00 0.00 54 1019.3
20260508020503 21 293 8.0 12.9 0.00 0.00 0.00 53 1019.3
20260508015503 21 273 11.3 16.1 0.00 0.00 0.00 52 1019.0
20260508015003 21 298 9.7 12.9 0.00 0.00 0.00 53 1018.9
20260508014503 21 303 9.7 17.7 0.00 0.00 0.00 53 1019.0
20260508014004 21 308 9.7 16.1 0.00 0.00 0.00 52 1018.9
20260508013503 21 301 11.3 14.5 0.00 0.00 0.00 52 1018.8
20260508013003 21 300 11.3 17.7 0.00 0.00 0.00 51 1018.7
20260508012503 21 308 11.3 19.3 0.00 0.00 0.00 51 1018.7
20260508012003 22 306 12.9 17.7 0.00 0.00 0.00 51 1019.0
20260508011503 22 305 12.9 19.3 0.00 0.00 0.00 51 1019.0
20260508011004 22 307 11.3 24.1 0.00 0.00 0.00 50 1019.0
20260508010503 22 300 12.9 16.1 0.00 0.00 0.00 50 1019.1
20260508010003 22 309 14.5 19.3 0.00 0.00 0.00 49 1019.1
20260508005503 22 306 14.5 20.9 0.00 0.00 0.00 49 1018.8
20260508005003 22 298 14.5 19.3 0.00 0.00 0.00 49 1018.8
20260508004503 22 290 12.9 20.9 0.00 0.00 0.00 49 1018.8
20260508004003 22 312 14.5 22.5 0.00 0.00 0.00 48 1018.8
20260508003004 22 307 14.5 27.4 0.00 0.00 0.00 47 1018.8
20260508002503 22 306 14.5 19.3 0.00 0.00 0.00 48 1018.8
20260508002003 22 308 16.1 25.7 0.00 0.00 0.00 47 1018.8
20260508001003 22 306 16.1 29.0 0.00 0.00 0.00 47 1018.8
20260508000504 22 306 17.7 25.7 0.00 0.00 0.00 47 1018.8
20260508000003 22 304 17.7 24.1 0.00 0.00 0.00 46 1018.8
20260507235504 22 309 17.7 20.9 0.00 0.00 0.00 47 1018.8
20260507235003 23 311 17.7 25.7 0.00 0.00 0.00 45 1018.7
20260507234503 23 311 19.3 30.6 0.00 0.00 0.00 45 1018.6
20260507234004 23 298 17.7 24.1 0.00 0.00 0.00 45 1018.6
20260507233503 23 302 17.7 32.2 0.00 0.00 0.00 44 1018.6
20260507233005 23 304 17.7 25.7 0.00 0.00 0.00 44 1018.7
20260507232503 23 300 19.3 29.0 0.00 0.00 0.00 45 1018.7
20260507232005 23 303 19.3 29.0 0.00 0.00 0.00 44 1018.7
20260507231503 23 306 17.7 27.4 0.00 0.00 0.00 44 1018.6
20260507231003 23 313 16.1 25.7 0.00 0.00 0.00 43 1018.7
20260507230004 23 297 17.7 20.9 0.00 0.00 0.00 43 1018.7
20260507225503 23 316 16.1 22.5 0.00 0.00 0.00 43 1018.7
20260507225004 24 313 12.9 29.0 0.00 0.00 0.00 42 1018.7
20260507224004 24 289 11.3 17.7 0.00 0.00 0.00 42 1018.9
20260507223503 24 305 14.5 17.7 0.00 0.00 0.00 43 1019.0
20260507223003 24 302 14.5 20.9 0.00 0.00 0.00 43 1019.0
20260507222503 24 318 14.5 27.4 0.00 0.00 0.00 43 1019.1
20260507222004 24 306 12.9 20.9 0.00 0.00 0.00 43 1019.1
20260507221503 24 315 12.9 25.7 0.00 0.00 0.00 43 1019.3
20260507221005 23 307 14.5 16.1 0.00 0.00 0.00 44 1019.3
20260507220503 23 307 14.5 17.7 0.00 0.00 0.00 44 1019.3
20260507220003 23 312 14.5 24.1 0.00 0.00 0.00 44 1019.4
20260507215503 23 323 16.1 27.4 0.00 0.00 0.00 45 1019.2
20260507215003 23 315 16.1 27.4 0.00 0.00 0.00 44 1019.3
20260507214504 23 314 16.1 22.5 0.00 0.00 0.00 45 1019.4
20260507214003 23 320 16.1 25.7 0.00 0.00 0.00 46 1019.5
20260507213504 23 314 14.5 24.1 0.00 0.00 0.00 47 1019.5
20260507213003 22 316 14.5 25.7 0.00 0.00 0.00 47 1019.6
20260507212502 22 318 14.5 24.1 0.00 0.00 0.00 48 1019.5
20260507212002 22 324 12.9 25.7 0.00 0.00 0.00 49 1019.6
20260507211502 22 329 12.9 24.1 0.00 0.00 0.00 49 1019.6
20260507211002 22 319 14.5 19.3 0.00 0.00 0.00 50 1019.7
20260507210002 22 324 14.5 25.7 0.00 0.00 0.00 50 1019.8
20260507205502 21 315 16.1 24.1 0.00 0.00 0.00 51 1019.8
20260507205002 21 321 20.9 20.9 0.00 0.00 0.00 52 1019.9
20260507204502 21 321 20.9 29.0 0.00 0.00 0.00 52 1019.8
20260507204002 21 317 17.7 29.0 0.00 0.00 0.00 51 1020.0
20260507203502 21 315 17.7 27.4 0.00 0.00 0.00 51 1019.9
20260507203002 21 307 17.7 22.5 0.00 0.00 0.00 51 1019.9
20260507202502 21 323 19.3 30.6 0.00 0.00 0.00 51 1020.0
20260507202002 21 316 20.9 29.0 0.00 0.00 0.00 51 1020.1
20260507201002 21 318 19.3 33.8 0.00 0.00 0.00 51 1020.1
20260507200502 21 313 19.3 30.6 0.00 0.00 0.00 52 1020.2
20260507200002 21 317 17.7 30.6 0.00 0.00 0.00 51 1020.0
20260507195502 21 324 20.9 29.0 0.00 0.00 0.00 52 1020.0
20260507195002 21 320 20.9 29.0 0.00 0.00 0.00 52 1020.0
20260507194002 21 318 19.3 27.4 0.00 0.00 0.00 51 1020.0
20260507193502 21 322 17.7 29.0 0.00 0.00 0.00 51 1020.0
20260507193002 21 319 17.7 27.4 0.00 0.00 0.00 51 1020.0
20260507192503 21 322 17.7 29.0 0.00 0.00 0.00 51 1020.1
20260507192002 21 318 17.7 27.4 0.00 0.00 0.00 51 1020.0
20260507191502 21 317 17.7 24.1 0.00 0.00 0.00 52 1020.2
20260507191002 21 313 17.7 27.4 0.00 0.00 0.00 52 1020.2
20260507190502 21 319 16.1 29.0 0.00 0.00 0.00 51 1020.1
20260507190004 21 316 16.1 25.7 0.00 0.00 0.00 52 1020.3
20260507185502 21 316 17.7 25.7 0.00 0.00 0.00 52 1020.4
20260507185002 21 313 16.1 29.0 0.00 0.00 0.00 52 1020.4
20260507184504 21 317 14.5 19.3 0.00 0.00 0.00 52 1020.4
20260507184003 21 323 12.9 22.5 0.00 0.00 0.00 52 1020.4
20260507183502 21 322 12.9 20.9 0.00 0.00 0.00 52 1020.6
20260507182502 21 319 11.3 19.3 0.00 0.00 0.00 52 1020.6
20260507181503 21 329 9.7 24.1 0.00 0.00 0.00 52 1020.7
20260507181003 20 326 9.7 17.7 0.00 0.00 0.00 52 1020.8
20260507180503 20 315 11.3 16.1 0.00 0.00 0.00 52 1020.9
20260507180002 20 314 12.9 17.7 0.00 0.00 0.00 52 1021.0
20260507175502 20 316 14.5 20.9 0.00 0.00 0.00 53 1020.7
20260507175002 20 319 11.3 20.9 0.00 0.00 0.00 52 1020.7
20260507174503 20 321 11.3 20.9 0.00 0.00 0.00 53 1020.6
20260507174003 19 320 12.9 17.7 0.00 0.00 0.00 54 1020.6
20260507173502 19 318 12.9 25.7 0.00 0.00 0.00 54 1020.7
20260507173004 19 320 14.5 19.3 0.00 0.00 0.00 54 1020.7
20260507172502 18 316 14.5 20.9 0.00 0.00 0.00 55 1020.7
20260507172003 18 319 12.9 20.9 0.00 0.00 0.00 54 1020.8
20260507171502 18 321 12.9 22.5 0.00 0.00 0.00 56 1020.7
20260507171002 18 322 12.9 17.7 0.00 0.00 0.00 55 1020.8
20260507170502 18 323 11.3 19.3 0.00 0.00 0.00 55 1020.7
20260507170002 18 322 12.9 19.3 0.00 0.00 0.00 57 1020.8
20260507165503 18 320 11.3 17.7 0.00 0.00 0.00 56 1020.8
20260507165003 18 324 9.7 19.3 0.00 0.00 0.00 56 1020.8
20260507164502 18 318 9.7 16.1 0.00 0.00 0.00 57 1020.9
20260507163503 17 322 4.8 17.7 0.00 0.00 0.00 57 1021.0
20260507162503 17 325 4.8 12.9 0.00 0.00 0.00 60 1021.0
20260507162003 17 332 4.8 12.9 0.00 0.00 0.00 60 1021.0
20260507161503 16 326 4.8 6.4 0.00 0.00 0.00 62 1021.1
20260507161003 16 328 3.2 9.7 0.00 0.00 0.00 63 1021.1
20260507160502 16 340 1.6 4.8 0.00 0.00 0.00 65 1021.2
20260507160003 16 328 1.6 4.8 0.00 0.00 0.00 67 1021.3
20260507155503 15 316 3.2 6.4 0.00 0.00 0.00 68 1021.1
20260507155002 15 323 3.2 8.0 0.00 0.00 0.00 69 1021.2
20260507154502 15 330 1.6 6.4 0.00 0.00 0.00 71 1021.2
20260507154003 14 330 1.6 6.4 0.00 0.00 0.00 74 1021.2
20260507153502 13 0 0.0 0.0 0.00 0.00 0.00 75 1021.2
20260507153003 13 124 0.0 3.2 0.00 0.00 0.00 78 1021.3
20260507152503 12 127 1.6 3.2 0.00 0.00 0.00 80 1021.4
20260507152002 12 134 0.0 3.2 0.00 0.00 0.00 82 1021.3
20260507151502 11 0 0.0 0.0 0.00 0.00 0.00 85 1021.4
20260507151003 11 0 0.0 0.0 0.00 0.00 0.00 86 1021.3
20260507150503 10 140 0.0 1.6 0.00 0.00 0.00 87 1021.3
20260507145502 10 0 0.0 0.0 0.00 0.00 0.00 89 1021.4
20260507145003 9 0 0.0 0.0 0.00 0.00 0.00 89 1021.4
20260507144502 9 0 0.0 0.0 0.00 0.00 0.00 89 1021.4
20260507144003 9 142 0.0 1.6 0.00 0.00 0.00 90 1021.6
20260507143502 8 143 0.0 1.6 0.00 0.00 0.00 90 1021.5
20260507142503 8 0 0.0 0.0 0.00 0.00 0.00 90 1021.5
20260507142002 7 0 0.0 0.0 0.00 0.00 0.00 89 1021.5
20260507141502 7 144 1.6 1.6 0.00 0.00 0.00 89 1021.2
20260507141003 7 143 0.0 3.2 0.00 0.00 0.00 88 1021.2
20260507140005 6 0 0.0 0.0 0.00 0.00 0.00 87 1021.2
20260507135503 6 128 0.0 3.2 0.00 0.00 0.00 86 1021.1
20260507135003 6 124 0.0 1.6 0.00 0.00 0.00 86 1020.9
20260507134503 6 0 1.6 0.0 0.00 0.00 0.00 85 1020.9
20260507133503 6 131 0.0 3.2 0.00 0.00 0.00 85 1020.7
20260507133002 6 139 0.0 1.6 0.00 0.00 0.00 84 1020.7
20260507132003 7 139 0.0 3.2 0.00 0.00 0.00 84 1020.7
20260507130503 7 151 1.6 3.2 0.00 0.00 0.00 84 1020.4
20260507130002 7 139 1.6 3.2 0.00 0.00 0.00 84 1020.4
20260507125502 7 142 1.6 3.2 0.00 0.00 0.00 84 1020.7
20260507125003 7 150 0.0 1.6 0.00 0.00 0.00 84 1020.7
20260507124503 7 176 0.0 1.6 0.00 0.00 0.00 84 1020.7
20260507123502 7 0 0.0 0.0 0.00 0.00 0.00 83 1020.7
20260507123002 7 0 0.0 0.0 0.00 0.00 0.00 83 1020.7
20260507122503 7 0 0.0 0.0 0.00 0.00 0.00 84 1020.7
20260507121503 7 156 1.6 3.2 0.00 0.00 0.00 85 1020.8
20260507121002 8 165 1.6 4.8 0.00 0.00 0.00 85 1020.8
20260507120503 8 209 1.6 3.2 0.00 0.00 0.00 85 1020.8
20260507115003 8 201 0.0 1.6 0.00 0.00 0.00 85 1020.9
20260507114002 8 218 1.6 3.2 0.00 0.00 0.00 85 1020.9
20260507113502 8 219 1.6 3.2 0.00 0.00 0.00 85 1020.9
20260507113003 8 210 1.6 3.2 0.00 0.00 0.00 85 1021.0
20260507112503 8 201 0.0 3.2 0.00 0.00 0.00 84 1021.1
20260507112003 8 199 0.0 1.6 0.00 0.00 0.00 84 1021.1
20260507111503 8 0 0.0 0.0 0.00 0.00 0.00 84 1021.1
20260507110502 8 201 0.0 1.6 0.00 0.00 0.00 85 1021.1
20260507110003 8 201 0.0 1.6 0.00 0.00 0.00 84 1021.1
20260507105503 8 0 0.0 0.0 0.00 0.00 0.00 84 1021.1
20260507105003 8 199 0.0 1.6 0.00 0.00 0.00 85 1021.1
20260507104502 8 0 0.0 0.0 0.00 0.00 0.00 85 1021.1
20260507104003 8 195 0.0 3.2 0.00 0.00 0.00 85 1021.1
20260507103503 8 203 0.0 1.6 0.00 0.00 0.00 85 1021.1
20260507103003 8 205 0.0 3.2 0.00 0.00 0.00 85 1021.2
20260507102503 8 191 0.0 1.6 0.00 0.00 0.00 85 1021.1
20260507101502 8 189 0.0 3.2 0.00 0.00 0.00 85 1021.2
20260507101003 8 0 0.0 0.0 0.00 0.00 0.00 84 1021.2
20260507100503 8 0 0.0 0.0 0.00 0.00 0.00 85 1021.2
20260507100003 8 0 0.0 0.0 0.00 0.00 0.00 85 1021.3
20260507095503 8 191 0.0 1.6 0.00 0.00 0.00 84 1021.2
20260507095004 8 192 1.6 3.2 0.00 0.00 0.00 84 1021.2
20260507094502 8 184 0.0 3.2 0.00 0.00 0.00 84 1021.3
20260507094003 8 164 0.0 1.6 0.00 0.00 0.00 84 1021.3
20260507093502 8 162 0.0 1.6 0.00 0.00 0.00 84 1021.3
20260507093003 8 196 0.0 3.2 0.00 0.00 0.00 84 1021.3
20260507092503 8 223 0.0 1.6 0.00 0.00 0.00 84 1021.4
20260507092003 8 221 0.0 1.6 0.00 0.00 0.00 84 1021.3
20260507091002 8 0 0.0 0.0 0.00 0.00 0.00 84 1021.4
20260507090503 8 0 0.0 0.0 0.00 0.00 0.00 84 1021.4
20260507090003 8 225 0.0 1.6 0.00 0.00 0.00 84 1021.5
20260507085503 8 0 0.0 0.0 0.00 0.00 0.00 83 1021.4
20260507085003 8 0 0.0 0.0 0.00 0.00 0.00 83 1021.6
20260507084503 8 227 0.0 1.6 0.00 0.00 0.00 83 1021.6
20260507084003 8 226 0.0 1.6 0.00 0.00 0.00 83 1021.6
20260507082003 9 0 0.0 0.0 0.00 0.00 0.00 82 1021.7
20260507081003 9 0 0.0 0.0 0.00 0.00 0.00 82 1021.8
20260507080503 9 236 0.0 1.6 0.00 0.00 0.00 81 1021.8
20260507080004 9 0 0.0 0.0 0.00 0.00 0.00 81 1021.8
20260507075502 9 0 0.0 0.0 0.00 0.00 0.00 81 1021.5
20260507075004 10 0 0.0 0.0 0.00 0.00 0.00 81 1021.8
20260507074503 10 236 0.0 1.6 0.00 0.00 0.00 81 1021.7
20260507074004 10 0 0.0 0.0 0.00 0.00 0.00 81 1021.7
20260507073503 10 0 1.6 0.0 0.00 0.00 0.00 81 1021.7
20260507073003 10 236 1.6 1.6 0.00 0.00 0.00 81 1021.8
20260507072504 10 235 0.0 3.2 0.00 0.00 0.00 80 1021.8
20260507072003 10 237 0.0 1.6 0.00 0.00 0.00 80 1021.8
20260507071504 10 237 0.0 1.6 0.00 0.00 0.00 80 1021.8
20260507071003 10 237 0.0 1.6 0.00 0.00 0.00 79 1021.8
20260507070503 10 242 0.0 3.2 0.00 0.00 0.00 80 1021.8
20260507065503 10 222 1.6 3.2 0.00 0.00 0.00 79 1021.6
20260507065003 10 193 1.6 3.2 0.00 0.00 0.00 79 1021.6
20260507064503 10 164 0.0 3.2 0.00 0.00 0.00 79 1021.7
20260507064004 10 0 0.0 0.0 0.00 0.00 0.00 79 1021.6
20260507063503 10 0 0.0 0.0 0.00 0.00 0.00 79 1021.6
20260507063003 10 166 0.0 6.4 0.00 0.00 0.00 79 1021.6
20260507061503 10 0 0.0 0.0 0.00 0.00 0.00 78 1021.6
20260507060503 11 178 0.0 1.6 0.00 0.00 0.00 77 1021.7
20260507060003 11 0 0.0 0.0 0.00 0.00 0.00 77 1021.7
20260507055503 11 0 0.0 0.0 0.00 0.00 0.00 76 1021.7
20260507055003 11 178 0.0 1.6 0.00 0.00 0.00 76 1021.7
20260507054504 11 0 0.0 0.0 0.00 0.00 0.00 76 1021.6
20260507053003 11 0 0.0 0.0 0.00 0.00 0.00 75 1021.6
20260507052504 11 175 0.0 1.6 0.00 0.00 0.00 74 1021.6
20260507052003 11 166 0.0 4.8 0.00 0.00 0.00 74 1021.6
20260507051506 12 165 1.6 4.8 0.00 0.00 0.00 74 1021.7
20260507051003 12 162 3.2 4.8 0.00 0.00 0.00 74 1021.7
20260507050502 12 155 1.6 4.8 0.00 0.00 0.00 73 1021.6
20260507050003 12 176 0.0 6.4 0.00 0.00 0.00 73 1021.6
20260507045503 12 0 0.0 0.0 0.00 0.00 0.00 73 1021.5
20260507045004 12 0 0.0 0.0 0.00 0.00 0.00 72 1021.5
20260507044503 12 0 0.0 0.0 0.00 0.00 0.00 71 1021.5
20260507044003 12 287 0.0 1.6 0.00 0.00 0.00 71 1021.5
20260507043503 12 0 0.0 0.0 0.00 0.00 0.00 71 1021.5
20260507042503 13 0 0.0 0.0 0.00 0.00 0.00 70 1021.5
20260507042003 13 0 0.0 0.0 0.00 0.00 0.00 70 1021.4
20260507041503 13 0 0.0 0.0 0.00 0.00 0.00 69 1021.4
20260507041003 13 304 0.0 4.8 0.00 0.00 0.00 69 1021.3
20260507040504 13 0 0.0 0.0 0.00 0.00 0.00 68 1021.3
20260507035502 13 0 0.0 0.0 0.00 0.00 0.00 67 1021.2
20260507035003 13 0 0.0 0.0 0.00 0.00 0.00 67 1021.2
20260507034503 14 0 1.6 0.0 0.00 0.00 0.00 67 1021.0
20260507034003 14 334 1.6 6.4 0.00 0.00 0.00 66 1021.0
20260507033503 14 328 0.0 4.8 0.00 0.00 0.00 66 1021.1
20260507033003 14 0 0.0 0.0 0.00 0.00 0.00 66 1021.1
20260507032504 14 319 1.6 3.2 0.00 0.00 0.00 66 1020.9
20260507031503 14 318 1.6 6.4 0.00 0.00 0.00 65 1020.9
20260507031002 15 312 1.6 4.8 0.00 0.00 0.00 65 1020.9
20260507030003 15 314 3.2 3.2 0.00 0.00 0.00 64 1020.6
20260507025504 15 315 3.2 6.4 0.00 0.00 0.00 64 1020.5
20260507025003 15 315 3.2 6.4 0.00 0.00 0.00 64 1020.4
20260507024503 15 316 4.8 6.4 0.00 0.00 0.00 64 1020.5
20260507024004 15 301 4.8 8.0 0.00 0.00 0.00 63 1020.4
20260507023503 15 314 6.4 8.0 0.00 0.00 0.00 63 1020.4
20260507023004 15 317 6.4 6.4 0.00 0.00 0.00 62 1020.3
20260507022503 15 313 6.4 9.7 0.00 0.00 0.00 62 1020.3